[[{"header":{"parameterUnit":"m.s-1","parameterCategory":2,"la1":30.2991,"la2":30.254,"lo1":-89.0895,"lo2":-89.0444,"dy":0.0017,"dx":0.0017,"nx":28,"ny":28,"refTime":"2024-06-11T03:00:00:Z","depth":"0","parameterNumber":2,"parameterNumberName":"U-component_of_CURRENTS"},"data":[0,0,0,0,0,0,0,0,0,0,0,0,0,0,0,0,0,0,0,0,0,0,0,0,0,0,0,0,0,0,0,0,0,0,0,0,0,0,0,0,0,0,0,0,0,0,0,0,0,0,0,0,0,0,0,0,0,0,-0.3409,-0.341,0,-0.3443,-0.3443,-0.3443,-0.3412,-0.3411,-0.3411,-0.341,-0.3329,-0.3328,-0.3326,0,0,0,0,0,0,0,0,0,0,0,0,0,-0.3182,-0.3187,-0.3409,-0.341,-0.3411,-0.3443,-0.3443,-0.3443,-0.3412,-0.3411,-0.341,-0.341,-0.333,-0.3328,-0.3326,0,0,0,0,0,0,0,0,0,0,0,0,0,-0.3249,-0.3188,-0.3408,-0.3404,-0.3405,-0.3443,-0.3443,-0.3442,-0.3412,-0.3411,-0.341,-0.3409,-0.333,-0.3328,-0.3326,-0.3329,0,0,-0.3318,-0.3317,0,0,0,0,0,0,0,0,-0.3245,-0.3256,-0.3404,-0.3405,-0.3406,-0.3428,-0.3334,-0.3401,-0.3412,-0.3402,-0.341,-0.3409,-0.3357,-0.3352,-0.3352,-0.3326,-0.3322,-0.3318,-0.3317,-0.3316,-0.3315,0,0,0,0,0,0,0,-0.3241,-0.3254,-0.3415,-0.3405,-0.3406,-0.3355,-0.3364,-0.3346,-0.3377,-0.3403,-0.3402,-0.3418,-0.3355,-0.3355,-0.335,-0.3321,-0.3318,-0.3316,-0.3315,-0.3314,-0.3297,-0.3298,0,0,0,0,0,0,-0.326,-0.3251,-0.3414,-0.3417,-0.3329,-0.3361,-0.3371,-0.3416,-0.3379,-0.3376,-0.3418,-0.3416,-0.3359,-0.3353,-0.3347,-0.3388,-0.3316,-0.3314,-0.3312,-0.3296,-0.3297,-0.3298,0,0,0,0,0,0,-0.3255,-0.3275,-0.3413,-0.3337,-0.3352,-0.3368,-0.3418,-0.3418,-0.3416,-0.3394,-0.3386,-0.3418,-0.3358,-0.335,-0.3337,-0.3383,-0.3312,-0.331,-0.3295,-0.3296,-0.3298,-0.3444,0,0,0,0,0,0,-0.3249,-0.3274,-0.3294,-0.334,-0.3358,-0.3449,-0.342,-0.3419,-0.343,-0.3427,-0.3391,-0.3383,-0.3357,-0.3341,-0.3334,-0.3378,-0.3308,-0.3293,-0.3295,-0.3297,-0.3438,-0.345,-0.3461,0,0,0,0,0,-0.3241,-0.328,-0.3296,-0.3315,-0.3393,-0.3451,-0.3455,-0.3455,-0.3431,-0.3445,-0.3414,-0.3384,-0.3348,-0.334,-0.3332,-0.3376,-0.3293,-0.3295,-0.3297,-0.3433,-0.3448,-0.346,0,0,0,0,0,0,-0.3184,-0.3283,-0.3301,-0.3366,-0.3413,-0.3449,-0.3457,-0.3459,-0.3446,-0.3434,-0.3395,-0.3386,-0.3393,-0.3355,-0.3347,-0.3373,-0.3316,-0.3316,-0.3421,-0.3435,-0.3446,-0.3466,-0.3306,0,0,0,0,0,-0.3189,-0.3247,-0.3325,-0.3372,-0.3401,-0.3427,-0.3442,-0.3456,-0.3462,-0.3456,-0.3433,-0.3405,-0.3398,-0.3391,-0.3373,-0.3385,-0.3381,-0.3405,-0.3417,-0.3427,-0.3436,-0.3451,-0.3465,-0.3305,-0.3305,-0.3305,0,0,-0.3172,-0.3239,-0.3265,-0.3363,-0.3393,-0.3459,-0.3432,-0.3475,-0.3524,-0.3448,-0.3477,-0.3442,-0.3407,-0.3429,-0.3429,-0.3403,-0.3482,-0.343,-0.3439,-0.3442,-0.3455,-0.347,-0.3485,-0.3307,-0.3307,-0.3306,0,0,-0.3172,-0.3241,-0.3283,-0.3346,-0.3421,-0.3465,-0.3483,-0.3532,-0.3545,-0.3578,-0.3536,-0.3531,-0.3512,-0.3511,-0.3505,-0.3563,-0.3539,-0.3548,-0.363,-0.3645,-0.3659,-0.3671,-0.3745,-0.3762,-0.3557,-0.3558,-0.3558,0,-0.314,-0.3223,-0.3296,-0.3367,-0.3425,-0.3477,-0.3539,-0.3582,-0.3615,-0.3644,-0.3603,-0.3601,-0.3563,-0.3609,-0.3623,-0.3595,-0.3607,-0.3588,-0.3664,-0.3675,-0.3685,-0.3757,-0.3774,-0.3565,-0.3564,-0.3563,-0.3563,0,-0.3184,-0.3249,-0.3283,-0.3409,-0.3489,-0.3546,-0.3652,-0.3709,-0.3731,-0.3767,-0.3805,-0.3756,-0.3752,-0.3746,-0.3699,-0.3755,-0.3747,-0.368,-0.3639,-0.3711,-0.3782,-0.3797,-0.3576,-0.3573,-0.3571,-0.3569,0,0,-0.31,-0.3273,-0.328,-0.3349,-0.3515,-0.3587,-0.3716,-0.3837,-0.392,-0.3933,-0.4007,-0.3985,-0.3947,-0.3932,-0.3876,-0.3885,-0.3974,-0.3811,-0.3808,-0.3904,-0.4055,-0.388,-0.388,-0.3913,-0.3915,-0.3916,-0.4099,0,-0.3091,-0.3196,-0.332,-0.3448,-0.3512,-0.3668,-0.3801,-0.3934,-0.401,-0.41,-0.4087,-0.4117,-0.4025,-0.4011,-0.4011,-0.3959,-0.401,-0.3934,-0.3952,-0.3955,-0.3804,-0.3888,-0.3441,-0.3548,-0.4113,-0.4116,-0.4118,0,-0.3072,-0.3158,-0.3256,-0.3479,-0.3532,-0.3645,-0.3881,-0.4005,-0.4179,-0.4233,-0.4276,-0.4265,-0.4282,-0.4176,-0.4186,-0.4135,-0.4116,-0.409,-0.4095,-0.3882,-0.3804,-0.3552,-0.3554,-0.3469,-0.4141,-0.4139,-0.4137,0,-0.2925,-0.3114,-0.3188,-0.3261,-0.3527,-0.3632,-0.3788,-0.4016,-0.4148,-0.4294,-0.4362,-0.4402,-0.4381,-0.4371,-0.4297,-0.4248,-0.4316,-0.4244,-0.4108,-0.4099,-0.3695,-0.3643,-0.3615,-0.4295,-0.4295,-0.4294,-0.4294,0,-0.2848,-0.2899,-0.3125,-0.3167,-0.3355,-0.3556,-0.3761,-0.3937,-0.4155,-0.4284,-0.4378,-0.4432,-0.4412,-0.4436,-0.4388,-0.4288,-0.4395,-0.4148,-0.4123,-0.3736,-0.3689,-0.3571,-0.3623,-0.4301,-0.43,-0.4298,-0.4297,0,-0.2644,-0.2772,-0.2904,-0.3176,-0.328,-0.3414,-0.3765,-0.3894,-0.4105,-0.4264,-0.4303,-0.4461,-0.4447,-0.4465,-0.4456,-0.4361,-0.4197,-0.428,-0.3857,-0.3774,-0.3488,-0.3564,-0.3589,-0.3521,-0.4151,-0.4148,-0.4145,0,-0.2521,-0.2551,-0.2879,-0.3005,-0.3128,-0.3357,-0.3523,-0.3828,-0.3953,-0.4245,-0.4278,-0.4373,-0.4298,-0.4284,-0.4125,-0.4049,-0.409,-0.3713,-0.3509,-0.3433,-0.3503,-0.3581,-0.353,-0.3081,-0.307,-0.3061,-0.3053,0,-0.2311,-0.2446,-0.2594,-0.2839,-0.3032,-0.3252,-0.3472,-0.3567,-0.3868,-0.3949,-0.4008,-0.3973,-0.3932,-0.3583,-0.3547,-0.3475,-0.3502,-0.3518,-0.3508,-0.2726,-0.2739,-0.2667,-0.3095,-0.297,-0.2979,-0.2985,-0.2989,-0.2992,-0.2172,-0.2238,-0.2441,-0.2662,-0.2886,-0.3014,-0.3046,-0.3218,-0.3301,-0.3285,-0.3498,-0.3243,-0.3061,-0.2832,-0.2831,-0.2602,-0.2907,-0.2456,-0.2592,-0.2714,-0.2501,-0.279,-0.2576,-0.2581,-0.2586,-0.2591,-0.2595,0,-0.197,-0.2048,-0.2233,-0.2461,-0.2547,-0.2751,-0.2907,-0.2823,-0.27,-0.2694,-0.2572,-0.2187,-0.1874,-0.1882,-0.1702,-0.1639,-0.1652,-0.1719,-0.1676,-0.17,-0.1937,-0.1727,-0.1228,-0.1228,-0.1228,-0.1228,-0.1228,-0.1228,-0.1869,-0.1905,-0.1983,-0.2017,-0.2146,-0.2093,-0.2076,-0.1991,-0.1913,-0.1567,-0.1315,-0.1191,-0.1295,-0.1286,-0.117,-0.1131,-0.1234,-0.1149,-0.1496,-0.1555,-0.1633,-0.1707,-0.1515,-0.098,-0.098,-0.098,-0.098,-0.098]},{"header":{"parameterUnit":"m.s-1","parameterCategory":2,"la1":30.2991,"la2":30.254,"lo1":-89.0895,"lo2":-89.0444,"dy":0.0017,"dx":0.0017,"nx":28,"ny":28,"refTime":"2024-06-11T03:00:00:Z","depth":"0","parameterNumber":3,"parameterNumberName":"V-component_of_CURRENTS"},"data":[0,0,0,0,0,0,0,0,0,0,0,0,0,0,0,0,0,0,0,0,0,0,0,0,0,0,0,0,0,0,0,0,0,0,0,0,0,0,0,0,0,0,0,0,0,0,0,0,0,0,0,0,0,0,0,0,0,0,-0.0561,-0.0561,0,-0.048,-0.0479,-0.0477,-0.0383,-0.0382,-0.0381,-0.0381,-0.024,-0.0237,-0.0234,0,0,0,0,0,0,0,0,0,0,0,0,0,-0.0563,-0.0564,-0.0561,-0.0561,-0.0561,-0.0481,-0.0479,-0.0477,-0.0383,-0.0382,-0.0381,-0.038,-0.0241,-0.0237,-0.0233,0,0,0,0,0,0,0,0,0,0,0,0,0,-0.0523,-0.0564,-0.0561,-0.051,-0.0505,-0.0481,-0.0479,-0.0477,-0.0383,-0.0382,-0.0381,-0.038,-0.0242,-0.0237,-0.0233,-0.0226,0,0,-0.0219,-0.0217,0,0,0,0,0,0,0,0,-0.0526,-0.0522,-0.0518,-0.0513,-0.0508,-0.0447,-0.0428,-0.0393,-0.0383,-0.0421,-0.0381,-0.0379,-0.0309,-0.0299,-0.0276,-0.022,-0.0214,-0.0218,-0.0215,-0.0214,-0.0212,0,0,0,0,0,0,0,-0.0529,-0.0525,-0.0521,-0.0518,-0.0512,-0.0467,-0.046,-0.042,-0.0365,-0.0418,-0.0413,-0.0416,-0.0305,-0.0281,-0.0272,-0.0212,-0.0218,-0.0214,-0.0211,-0.021,-0.0132,-0.0133,0,0,0,0,0,0,-0.0559,-0.0528,-0.0524,-0.052,-0.0523,-0.0469,-0.046,-0.0462,-0.0367,-0.0354,-0.0417,-0.0412,-0.0289,-0.0278,-0.0267,-0.0245,-0.0214,-0.0209,-0.0207,-0.0131,-0.0132,-0.0133,0,0,0,0,0,0,-0.056,-0.056,-0.0527,-0.0528,-0.0522,-0.0471,-0.0472,-0.0461,-0.0435,-0.0369,-0.0353,-0.0405,-0.0288,-0.0273,-0.0236,-0.0239,-0.0207,-0.0203,-0.013,-0.0131,-0.0132,-0.0208,0,0,0,0,0,0,-0.056,-0.056,-0.0563,-0.0531,-0.0523,-0.0522,-0.0474,-0.046,-0.0443,-0.0435,-0.0353,-0.0338,-0.0286,-0.0244,-0.0232,-0.0233,-0.0199,-0.013,-0.0131,-0.0132,-0.0204,-0.0211,-0.0217,0,0,0,0,0,-0.056,-0.0574,-0.0563,-0.0563,-0.0532,-0.0524,-0.0515,-0.0469,-0.0444,-0.0439,-0.0385,-0.0341,-0.0243,-0.0241,-0.0226,-0.0226,-0.0129,-0.013,-0.0132,-0.0201,-0.021,-0.0217,0,0,0,0,0,0,-0.0573,-0.0565,-0.0553,-0.0562,-0.055,-0.0511,-0.0504,-0.0479,-0.0431,-0.0421,-0.0349,-0.0331,-0.0297,-0.0259,-0.0258,-0.0209,-0.0179,-0.0178,-0.0237,-0.0244,-0.0251,-0.0269,-0.0196,0,0,0,0,0,-0.0583,-0.059,-0.0577,-0.0584,-0.0583,-0.0545,-0.0534,-0.0511,-0.0474,-0.045,-0.0397,-0.0342,-0.0294,-0.0269,-0.0222,-0.02,-0.0177,-0.0191,-0.0198,-0.0203,-0.021,-0.0192,-0.0198,-0.0138,-0.0138,-0.0138,0,0,-0.0591,-0.0589,-0.0592,-0.0588,-0.0571,-0.0572,-0.0533,-0.053,-0.0523,-0.0445,-0.0412,-0.0361,-0.0294,-0.0262,-0.0244,-0.0229,-0.0209,-0.0205,-0.0211,-0.0214,-0.0195,-0.02,-0.0206,-0.0139,-0.0139,-0.0139,0,0,-0.0607,-0.0611,-0.0614,-0.0612,-0.0607,-0.0596,-0.0603,-0.0572,-0.0549,-0.0524,-0.0463,-0.0422,-0.0351,-0.0305,-0.0271,-0.029,-0.0243,-0.0274,-0.0318,-0.0301,-0.0306,-0.031,-0.0294,-0.0296,-0.0278,-0.0278,-0.0278,0,-0.0614,-0.0623,-0.0615,-0.0619,-0.0631,-0.0613,-0.0627,-0.0604,-0.0564,-0.0563,-0.0524,-0.0433,-0.0371,-0.0335,-0.033,-0.0303,-0.0289,-0.0294,-0.031,-0.0314,-0.0316,-0.0299,-0.03,-0.0282,-0.0281,-0.0281,-0.028,0,-0.063,-0.0637,-0.0646,-0.065,-0.066,-0.0678,-0.0667,-0.0668,-0.0647,-0.0625,-0.0592,-0.0507,-0.0457,-0.0426,-0.0374,-0.0364,-0.0346,-0.0321,-0.0294,-0.0327,-0.0306,-0.0306,-0.0287,-0.0286,-0.0285,-0.0284,0,0,-0.0663,-0.0656,-0.0663,-0.0683,-0.0688,-0.0714,-0.0716,-0.0733,-0.0756,-0.0695,-0.0702,-0.0603,-0.0568,-0.0528,-0.046,-0.0431,-0.0425,-0.0387,-0.0384,-0.0376,-0.0392,-0.0245,-0.023,-0.0406,-0.0406,-0.0406,-0.0372,0,-0.0684,-0.0709,-0.0699,-0.0747,-0.0773,-0.0775,-0.0795,-0.0807,-0.0797,-0.0799,-0.0719,-0.0692,-0.0603,-0.058,-0.0536,-0.045,-0.0427,-0.0437,-0.0356,-0.0354,-0.0223,-0.0226,-0.0133,-0.0082,-0.0371,-0.0371,-0.0371,0,-0.0707,-0.0735,-0.077,-0.0829,-0.0844,-0.0867,-0.094,-0.0947,-0.0941,-0.0928,-0.0884,-0.0824,-0.0754,-0.0679,-0.0561,-0.0573,-0.0494,-0.0426,-0.0423,-0.0258,-0.0205,-0.0093,-0.007,0.0086,-0.037,-0.037,-0.0371,0,-0.0762,-0.0796,-0.084,-0.0855,-0.0902,-0.0934,-0.0968,-0.0991,-0.1028,-0.1005,-0.1025,-0.0932,-0.089,-0.0775,-0.0606,-0.0597,-0.0479,-0.0454,-0.0254,-0.0244,-0.0132,-0.011,0.0051,-0.0394,-0.0394,-0.0394,-0.0394,0,-0.0798,-0.084,-0.0873,-0.0903,-0.1013,-0.1002,-0.1096,-0.1117,-0.1132,-0.1181,-0.1092,-0.109,-0.0915,-0.0815,-0.0658,-0.0436,-0.052,-0.0257,-0.0219,-0.0154,-0.0134,0.0035,0.0074,-0.0393,-0.0393,-0.0393,-0.0393,0,-0.0832,-0.0838,-0.0926,-0.0999,-0.1033,-0.1116,-0.1203,-0.1267,-0.1257,-0.1308,-0.1304,-0.1228,-0.1057,-0.0865,-0.0671,-0.0501,-0.0191,-0.0221,-0.0144,-0.0094,0.0281,0.0311,0.0478,0.0568,0.0008,0.0012,0.0016,0,-0.0838,-0.087,-0.1015,-0.1111,-0.1147,-0.1248,-0.1326,-0.134,-0.1386,-0.1381,-0.1407,-0.1274,-0.1108,-0.0753,-0.0445,-0.0128,-0.005,0.0108,0.0166,0.0332,0.0389,0.0386,0.0446,0.0264,0.0269,0.0273,0.0277,0,-0.0874,-0.0928,-0.1025,-0.122,-0.1334,-0.145,-0.1529,-0.1571,-0.1561,-0.1526,-0.1437,-0.1287,-0.0929,-0.0489,-0.0087,0.0086,0.0255,0.0208,0.0346,0.0591,0.0626,0.072,0.02,0.0314,0.031,0.0307,0.0305,0.0304,-0.0927,-0.1021,-0.1158,-0.1343,-0.1489,-0.1598,-0.1632,-0.1633,-0.1611,-0.1412,-0.1351,-0.0908,-0.05,0.0131,0.0302,0.0703,0.0589,0.0828,0.084,0.0814,0.0947,0.0532,0.0723,0.0722,0.072,0.0719,0.0719,0,-0.0987,-0.1082,-0.1266,-0.1468,-0.1606,-0.1657,-0.173,-0.1658,-0.1518,-0.1166,-0.0894,-0.0179,0.0301,0.068,0.1138,0.1324,0.1309,0.1374,0.1363,0.1388,0.1004,0.1068,0.1385,0.1385,0.1384,0.1384,0.1384,0.1384,-0.103,-0.1181,-0.1267,-0.1495,-0.1615,-0.1677,-0.1674,-0.1509,-0.1218,-0.0562,0.0056,0.0484,0.0877,0.1375,0.1752,0.1775,0.1878,0.1863,0.1893,0.1615,0.1563,0.1514,0.1587,0.2008,0.2008,0.2281,0.2284,0.2286]}],[{"header":{"parameterUnit":"m.s-1","parameterCategory":2,"la1":30.2991,"la2":30.254,"lo1":-89.0895,"lo2":-89.0444,"dy":0.0017,"dx":0.0017,"nx":28,"ny":28,"refTime":"2024-06-11T03:00:00:Z","depth":"2","parameterNumber":2,"parameterNumberName":"U-component_of_CURRENTS"},"data":[0,0,0,0,0,0,0,0,0,0,0,0,0,0,0,0,0,0,0,0,0,0,0,0,0,0,0,0,0,0,0,0,0,0,0,0,0,0,0,0,0,0,0,0,0,0,0,0,0,0,0,0,0,0,0,0,0,0,-0.2632,-0.263,0,-0.2481,-0.2479,-0.2477,-0.2534,-0.2537,-0.2541,-0.2545,-0.253,-0.2527,-0.2523,0,0,0,0,0,0,0,0,0,0,0,0,0,-0.2509,-0.2514,-0.2632,-0.263,-0.2628,-0.2481,-0.2479,-0.2476,-0.2533,-0.2537,-0.2542,-0.2546,-0.2532,-0.2527,-0.2523,0,0,0,0,0,0,0,0,0,0,0,0,0,-0.2479,-0.2515,-0.2632,-0.2641,-0.2641,-0.2482,-0.2479,-0.2476,-0.2532,-0.2538,-0.2543,-0.2548,-0.2533,-0.2528,-0.2522,-0.2375,0,0,-0.2504,-0.2502,0,0,0,0,0,0,0,0,-0.2481,-0.2484,-0.2641,-0.264,-0.2639,-0.2534,-0.243,-0.245,-0.2531,-0.257,-0.2545,-0.2551,-0.2542,-0.2536,-0.2489,-0.2374,-0.2374,-0.2504,-0.25,-0.2498,-0.2496,0,0,0,0,0,0,0,-0.2484,-0.2488,-0.2569,-0.2639,-0.2638,-0.2495,-0.2501,-0.2431,-0.2527,-0.2567,-0.2572,-0.2557,-0.2543,-0.2494,-0.249,-0.2374,-0.2504,-0.2499,-0.2495,-0.2493,-0.2249,-0.2246,0,0,0,0,0,0,-0.2527,-0.2492,-0.2574,-0.2565,-0.2575,-0.2495,-0.2501,-0.256,-0.2525,-0.2525,-0.2553,-0.2561,-0.2501,-0.2496,-0.249,-0.2453,-0.2498,-0.2492,-0.2489,-0.2252,-0.2248,-0.2245,0,0,0,0,0,0,-0.2526,-0.2539,-0.258,-0.2522,-0.2518,-0.2495,-0.2558,-0.2554,-0.2558,-0.2513,-0.2517,-0.2568,-0.2506,-0.2498,-0.2437,-0.2449,-0.249,-0.2485,-0.2256,-0.2251,-0.2247,-0.2292,0,0,0,0,0,0,-0.2525,-0.2541,-0.2592,-0.2528,-0.2524,-0.249,-0.2552,-0.2547,-0.2539,-0.2549,-0.2525,-0.2526,-0.2509,-0.2445,-0.2431,-0.2442,-0.248,-0.2259,-0.2254,-0.2248,-0.2295,-0.229,-0.2286,0,0,0,0,0,-0.2522,-0.2541,-0.2598,-0.2606,-0.2601,-0.2488,-0.2469,-0.2465,-0.2535,-0.2499,-0.2493,-0.253,-0.2401,-0.2436,-0.2421,-0.2432,-0.2262,-0.2255,-0.2249,-0.2297,-0.2291,-0.2286,0,0,0,0,0,0,-0.2496,-0.2547,-0.2608,-0.2647,-0.2588,-0.25,-0.2473,-0.2477,-0.2438,-0.2479,-0.247,-0.2464,-0.2412,-0.2389,-0.2429,-0.2336,-0.2344,-0.2334,-0.2386,-0.238,-0.2375,-0.2446,-0.2475,0,0,0,0,0,-0.2524,-0.256,-0.2561,-0.2572,-0.258,-0.2542,-0.2505,-0.2497,-0.2451,-0.2444,-0.2421,-0.2398,-0.2351,-0.2349,-0.2278,-0.2221,-0.2305,-0.2217,-0.2213,-0.221,-0.225,-0.2381,-0.2397,-0.2223,-0.2223,-0.2223,0,0,-0.251,-0.2537,-0.256,-0.2567,-0.2549,-0.2509,-0.2534,-0.248,-0.241,-0.2443,-0.2365,-0.2363,-0.2321,-0.2257,-0.2237,-0.2262,-0.2295,-0.2201,-0.22,-0.2243,-0.2377,-0.2395,-0.2412,-0.2218,-0.2219,-0.222,0,0,-0.2446,-0.2547,-0.2559,-0.2541,-0.252,-0.2473,-0.2476,-0.2418,-0.2379,-0.2284,-0.2309,-0.2327,-0.2214,-0.222,-0.2205,-0.2126,-0.2248,-0.2106,-0.2175,-0.2301,-0.232,-0.2338,-0.2463,-0.2492,-0.2132,-0.2132,-0.2132,0,-0.2435,-0.2471,-0.2515,-0.2516,-0.2494,-0.2478,-0.2447,-0.2363,-0.2268,-0.2272,-0.2264,-0.2263,-0.2198,-0.2235,-0.2189,-0.2128,-0.2236,-0.2213,-0.2309,-0.2328,-0.2346,-0.2471,-0.2502,-0.2133,-0.2133,-0.2133,-0.2133,0,-0.2385,-0.2422,-0.241,-0.2441,-0.2408,-0.2351,-0.2299,-0.2237,-0.2216,-0.2206,-0.2227,-0.219,-0.2248,-0.2199,-0.2153,-0.2256,-0.2302,-0.2281,-0.2355,-0.2369,-0.2495,-0.2528,-0.2135,-0.2135,-0.2135,-0.2134,0,0,-0.2341,-0.2375,-0.2379,-0.2408,-0.2375,-0.2344,-0.2234,-0.2176,-0.2225,-0.2164,-0.2282,-0.2166,-0.2305,-0.2294,-0.231,-0.2391,-0.2546,-0.2399,-0.2405,-0.2582,-0.2875,-0.2585,-0.2594,-0.2588,-0.2593,-0.2597,-0.2916,0,-0.2284,-0.2273,-0.2293,-0.2261,-0.2265,-0.225,-0.2177,-0.215,-0.2147,-0.2245,-0.2302,-0.24,-0.2294,-0.2413,-0.2471,-0.2531,-0.2635,-0.2464,-0.2785,-0.2794,-0.2584,-0.2621,-0.2229,-0.2451,-0.2948,-0.2953,-0.2957,0,-0.224,-0.224,-0.2202,-0.2245,-0.2262,-0.2231,-0.2248,-0.2185,-0.2294,-0.2314,-0.2491,-0.2631,-0.2757,-0.2687,-0.2862,-0.2783,-0.2833,-0.2872,-0.2886,-0.2633,-0.2562,-0.251,-0.2492,-0.3012,-0.3008,-0.3004,-0.3,0,-0.217,-0.2192,-0.2152,-0.2161,-0.2183,-0.2176,-0.2183,-0.2245,-0.2267,-0.2455,-0.262,-0.2814,-0.2968,-0.3069,-0.3109,-0.3043,-0.3341,-0.326,-0.307,-0.3054,-0.2783,-0.2728,-0.3432,-0.3432,-0.3431,-0.343,-0.3429,0,-0.208,-0.2077,-0.2142,-0.2122,-0.2153,-0.22,-0.2275,-0.2265,-0.2433,-0.2568,-0.2729,-0.2901,-0.3077,-0.3282,-0.3274,-0.3259,-0.3476,-0.3109,-0.3116,-0.2772,-0.2715,-0.3238,-0.3212,-0.3442,-0.344,-0.3437,-0.3435,0,-0.1992,-0.2,-0.2009,-0.207,-0.2103,-0.2144,-0.2296,-0.2382,-0.2494,-0.2704,-0.2806,-0.3039,-0.3175,-0.3359,-0.3537,-0.343,-0.3473,-0.343,-0.3,-0.2941,-0.3078,-0.305,-0.3259,-0.3252,-0.3245,-0.324,-0.3235,0,-0.1925,-0.1909,-0.1989,-0.201,-0.2033,-0.2135,-0.2201,-0.2336,-0.2445,-0.2732,-0.2843,-0.3116,-0.3138,-0.3289,-0.3157,-0.315,-0.3372,-0.2884,-0.2594,-0.3075,-0.3064,-0.3044,-0.3025,-0.2301,-0.229,-0.228,-0.2272,0,-0.1829,-0.1866,-0.1886,-0.1924,-0.1993,-0.21,-0.2228,-0.2315,-0.2502,-0.2627,-0.2729,-0.2791,-0.2845,-0.2574,-0.2599,-0.2549,-0.2822,-0.2671,-0.3403,-0.2323,-0.2173,-0.216,-0.2174,-0.2186,-0.2195,-0.2201,-0.2206,-0.2209,-0.1778,-0.1797,-0.1815,-0.185,-0.1924,-0.1985,-0.1996,-0.2144,-0.2217,-0.2287,-0.2422,-0.2288,-0.2296,-0.1927,-0.1917,-0.194,-0.2095,-0.2062,-0.2094,-0.2136,-0.1884,-0.1721,-0.1609,-0.1614,-0.1618,-0.1622,-0.1626,0,-0.1682,-0.1709,-0.1739,-0.1747,-0.1748,-0.1838,-0.1939,-0.1887,-0.1849,-0.1875,-0.1789,-0.1467,-0.1236,-0.1359,-0.1112,-0.1095,-0.1134,-0.1183,-0.1209,-0.1286,-0.1358,-0.1072,-0.0581,-0.058,-0.0579,-0.0578,0,0,-0.1626,-0.1605,-0.162,-0.1545,-0.1548,-0.1472,-0.1464,-0.1384,-0.1321,-0.1132,-0.0984,-0.0931,-0.1049,-0.0706,-0.0692,-0.0593,-0.0949,-0.0568,-0.1364,-0.1451,-0.1522,-0.1782,-0.1414,0,0,0,0,0]},{"header":{"parameterUnit":"m.s-1","parameterCategory":2,"la1":30.2991,"la2":30.254,"lo1":-89.0895,"lo2":-89.0444,"dy":0.0017,"dx":0.0017,"nx":28,"ny":28,"refTime":"2024-06-11T03:00:00:Z","depth":"2","parameterNumber":3,"parameterNumberName":"V-component_of_CURRENTS"},"data":[0,0,0,0,0,0,0,0,0,0,0,0,0,0,0,0,0,0,0,0,0,0,0,0,0,0,0,0,0,0,0,0,0,0,0,0,0,0,0,0,0,0,0,0,0,0,0,0,0,0,0,0,0,0,0,0,0,0,-0.0234,-0.0232,0,-0.0018,-0.0015,-0.0012,0.0006,0.0004,0.0001,-0.0002,0.0062,0.0066,0.007,0,0,0,0,0,0,0,0,0,0,0,0,0,-0.0374,-0.0373,-0.0234,-0.0231,-0.0229,-0.0018,-0.0015,-0.0012,0.0007,0.0004,0.0,-0.0003,0.0061,0.0066,0.0071,0,0,0,0,0,0,0,0,0,0,0,0,0,-0.0248,-0.0373,-0.0234,-0.0198,-0.0192,-0.0019,-0.0015,-0.0011,0.0008,0.0004,-0.0001,-0.0004,0.0059,0.0065,0.0071,0.0191,0,0,0.0091,0.0093,0,0,0,0,0,0,0,0,-0.0256,-0.0243,-0.0205,-0.02,-0.0194,-0.0041,-0.0041,0.0048,0.0009,-0.0064,-0.0002,-0.0006,0.0014,0.0024,0.0081,0.0194,0.0197,0.0091,0.0095,0.0098,0.0099,0,0,0,0,0,0,0,-0.0265,-0.025,-0.0144,-0.0203,-0.0195,-0.0105,-0.0093,-0.0022,-0.0005,-0.0058,-0.0057,-0.0038,0.0016,0.0076,0.0082,0.0198,0.0091,0.0097,0.01,0.0103,0.0392,0.0396,0,0,0,0,0,0,-0.0308,-0.026,-0.0151,-0.0138,-0.024,-0.01,-0.0087,-0.0082,-0.0002,0.0007,-0.0035,-0.0038,0.0067,0.0075,0.0084,0.0206,0.0098,0.0104,0.0107,0.0388,0.0393,0.0397,0,0,0,0,0,0,-0.0312,-0.0301,-0.016,-0.0196,-0.0173,-0.0096,-0.0089,-0.0076,-0.0047,0.0016,0.0021,-0.0026,0.0064,0.0076,0.0161,0.0208,0.0106,0.0112,0.0383,0.0389,0.0395,0.0463,0,0,0,0,0,0,-0.0317,-0.0304,-0.0311,-0.02,-0.0173,-0.0056,-0.0085,-0.0069,-0.003,-0.0033,0.0028,0.0031,0.0062,0.0152,0.0167,0.0215,0.0117,0.0378,0.0386,0.0393,0.0456,0.0471,0.0483,0,0,0,0,0,-0.0323,-0.0305,-0.0313,-0.0299,-0.0187,-0.0054,-0.0029,0.0015,-0.0026,0.0018,0.0059,0.0028,0.0208,0.0162,0.0178,0.0228,0.0375,0.0384,0.0392,0.045,0.0468,0.0483,0,0,0,0,0,0,-0.0364,-0.0299,-0.0305,-0.0271,-0.0178,-0.0053,-0.0016,0.0008,0.0082,0.0051,0.009,0.0103,0.0193,0.0214,0.0161,0.0337,0.0283,0.0295,0.0321,0.0338,0.0351,0.0265,0.0122,0,0,0,0,0,-0.038,-0.0366,-0.0267,-0.0244,-0.0205,-0.012,-0.0068,-0.0036,0.0042,0.0068,0.012,0.0175,0.0258,0.0291,0.0365,0.0468,0.0431,0.051,0.0524,0.0535,0.0481,0.0519,0.0529,0.0426,0.0426,0.0425,0,0,-0.0395,-0.0357,-0.0352,-0.0254,-0.0192,-0.0124,-0.0098,-0.0024,0.0022,0.0064,0.0139,0.0222,0.0297,0.0417,0.0458,0.0428,0.0551,0.0546,0.0554,0.0493,0.0529,0.0538,0.0546,0.0432,0.0431,0.043,0,0,-0.0399,-0.0381,-0.0365,-0.0294,-0.0207,-0.0135,-0.0125,-0.0002,0.0039,0.0157,0.0189,0.0303,0.0427,0.0508,0.0557,0.0691,0.0621,0.0711,0.0711,0.0752,0.0758,0.0764,0.0733,0.0735,0.0718,0.0718,0.0718,0,-0.0424,-0.0397,-0.0328,-0.0286,-0.0249,-0.0156,-0.0119,-0.0029,0.0107,0.0149,0.0173,0.0393,0.0473,0.0601,0.0659,0.0717,0.0685,0.064,0.0763,0.0767,0.0771,0.0739,0.074,0.0723,0.0722,0.0722,0.0721,0,-0.041,-0.0389,-0.0364,-0.0306,-0.0241,-0.0183,-0.0076,-0.0,0.0062,0.0154,0.0302,0.0461,0.0572,0.0656,0.07,0.0791,0.074,0.0772,0.0703,0.0784,0.0747,0.0747,0.0729,0.0727,0.0726,0.0725,0,0,-0.0468,-0.0378,-0.0376,-0.0373,-0.026,-0.0209,-0.0125,-0.0005,0.0029,0.0209,0.0289,0.0508,0.0576,0.0635,0.0734,0.0796,0.0845,0.0782,0.0783,0.0715,0.0858,0.092,0.0924,0.0883,0.0884,0.0884,0.0819,0,-0.0483,-0.044,-0.0384,-0.0354,-0.0323,-0.0235,-0.0169,-0.0063,0.0064,0.0184,0.0362,0.0486,0.0572,0.0641,0.0723,0.0812,0.0844,0.0853,0.0816,0.0813,0.0831,0.0928,0.0859,0.0804,0.0818,0.0818,0.0818,0,-0.0487,-0.0466,-0.0437,-0.0406,-0.039,-0.0359,-0.0274,-0.0201,-0.0014,0.0092,0.0251,0.0381,0.0531,0.0598,0.0728,0.0714,0.0762,0.0828,0.0828,0.0843,0.0876,0.0729,0.0802,0.0816,0.0816,0.0816,0.0817,0,-0.0557,-0.0512,-0.0505,-0.0487,-0.0411,-0.0408,-0.038,-0.0236,-0.0182,0.0021,0.0095,0.0291,0.0377,0.0492,0.0633,0.0666,0.0733,0.0811,0.0896,0.0897,0.0807,0.0802,0.0861,0.0861,0.0862,0.0862,0.0862,0,-0.0577,-0.0582,-0.055,-0.0542,-0.0578,-0.051,-0.0507,-0.0415,-0.0284,-0.0231,0.0012,0.0103,0.0346,0.0441,0.0572,0.0711,0.0676,0.0877,0.0901,0.0836,0.0835,0.0817,0.0813,0.0859,0.086,0.086,0.0861,0,-0.0628,-0.0586,-0.0603,-0.0586,-0.0597,-0.0635,-0.0633,-0.0612,-0.0476,-0.0395,-0.0343,-0.0078,0.0088,0.0293,0.0475,0.0615,0.0762,0.08,0.0678,0.0695,0.0905,0.0905,0.0924,0.0926,0.0928,0.0929,0.093,0,-0.064,-0.0641,-0.0674,-0.0715,-0.0717,-0.0767,-0.0792,-0.0706,-0.0674,-0.0511,-0.0473,-0.0275,-0.0074,0.0229,0.0482,0.071,0.0744,0.0773,0.0893,0.0897,0.0918,0.0916,0.0915,0.0776,0.0776,0.0776,0.0776,0,-0.0692,-0.0704,-0.0731,-0.0818,-0.0875,-0.0932,-0.0964,-0.096,-0.0857,-0.0744,-0.0576,-0.0402,-0.0082,0.0234,0.053,0.0659,0.0763,0.0787,0.0799,0.0809,0.0765,0.0784,0.0785,0.0775,0.0775,0.0775,0.0775,0.0775,-0.0759,-0.0817,-0.086,-0.0948,-0.1007,-0.1065,-0.1093,-0.1065,-0.0996,-0.0778,-0.0648,-0.0332,-0.0071,0.0446,0.0599,0.0752,0.0816,0.0886,0.0883,0.088,0.0914,0.088,0.091,0.0911,0.0912,0.0913,0.0913,0,-0.0848,-0.0906,-0.0994,-0.1075,-0.1142,-0.115,-0.1172,-0.1133,-0.1024,-0.0782,-0.0529,-0.0184,0.0155,0.0398,0.0648,0.0834,0.0787,0.0852,0.0763,0.0764,0.0765,0.079,0.0755,0.0755,0.0755,0.0755,0,0,-0.0902,-0.1002,-0.1049,-0.1175,-0.1221,-0.1264,-0.1263,-0.113,-0.0952,-0.065,-0.0384,-0.0034,0.0215,0.0386,0.0564,0.0663,0.0665,0.0654,0.0764,0.0637,0.0636,0.0769,0.0809,0,0,0,0,0]}],[{"header":{"parameterUnit":"m.s-1","parameterCategory":2,"la1":30.2991,"la2":30.254,"lo1":-89.0895,"lo2":-89.0444,"dy":0.0017,"dx":0.0017,"nx":28,"ny":28,"refTime":"2024-06-11T03:00:00:Z","depth":"4","parameterNumber":2,"parameterNumberName":"U-component_of_CURRENTS"},"data":[0,0,0,0,0,0,0,0,0,0,0,0,0,0,0,0,0,0,0,0,0,0,0,0,0,0,0,0,0,0,0,0,0,0,0,0,0,0,0,0,0,0,0,0,0,0,0,0,0,0,0,0,0,0,0,0,0,0,-0.0738,-0.0738,0,-0.0781,-0.0782,-0.0783,-0.0826,-0.0826,-0.0827,-0.0827,-0.0894,-0.0896,-0.0897,0,0,0,0,0,0,0,0,0,0,0,0,0,-0.0896,-0.0892,-0.0738,-0.0739,-0.0739,-0.0781,-0.0782,-0.0783,-0.0826,-0.0826,-0.0827,-0.0827,-0.0894,-0.0895,-0.0897,0,0,0,0,0,0,0,0,0,0,0,0,0,-0.0874,-0.089,-0.0738,-0.0763,-0.0765,-0.0781,-0.0782,-0.0783,-0.0826,-0.0826,-0.0827,-0.0827,-0.0893,-0.0895,-0.0897,-0.0903,0,0,-0.0904,-0.0905,0,0,0,0,0,0,0,0,-0.0875,-0.0869,-0.0759,-0.0761,-0.0764,-0.0796,-0.0862,-0.0823,-0.0826,-0.0806,-0.0827,-0.0827,-0.0861,-0.0866,-0.0877,-0.0906,-0.0909,-0.0905,-0.0906,-0.0907,-0.0908,0,0,0,0,0,0,0,-0.0876,-0.0868,-0.0759,-0.0759,-0.0762,-0.0841,-0.0837,-0.0856,-0.0834,-0.0808,-0.081,-0.081,-0.0863,-0.0875,-0.0879,-0.091,-0.0905,-0.0907,-0.0908,-0.0909,-0.0965,-0.0965,0,0,0,0,0,0,-0.0852,-0.0868,-0.0757,-0.076,-0.0818,-0.0837,-0.0833,-0.0788,-0.0833,-0.0839,-0.081,-0.0812,-0.0871,-0.0877,-0.0882,-0.0944,-0.0907,-0.0909,-0.0911,-0.0965,-0.0965,-0.0965,0,0,0,0,0,0,-0.0855,-0.084,-0.0755,-0.0816,-0.081,-0.0832,-0.0783,-0.0788,-0.0819,-0.0833,-0.0841,-0.0836,-0.0872,-0.0879,-0.0922,-0.0945,-0.091,-0.0912,-0.0965,-0.0965,-0.0965,-0.1034,0,0,0,0,0,0,-0.0858,-0.084,-0.0823,-0.0812,-0.0805,-0.0765,-0.0782,-0.0789,-0.0815,-0.0819,-0.0858,-0.0864,-0.0872,-0.0919,-0.0925,-0.0947,-0.0914,-0.0964,-0.0965,-0.0965,-0.1031,-0.1036,-0.1041,0,0,0,0,0,-0.0863,-0.0841,-0.0821,-0.081,-0.0771,-0.0765,-0.0769,-0.0792,-0.0816,-0.0824,-0.0864,-0.0864,-0.0923,-0.0922,-0.0928,-0.0952,-0.0964,-0.0965,-0.0965,-0.1029,-0.1035,-0.104,0,0,0,0,0,0,-0.0923,-0.0842,-0.0821,-0.0779,-0.0768,-0.0771,-0.0788,-0.0802,-0.0841,-0.0858,-0.088,-0.0889,-0.0927,-0.0926,-0.0924,-0.0962,-0.0937,-0.0939,-0.0984,-0.0989,-0.0994,-0.1002,-0.0916,0,0,0,0,0,-0.0916,-0.0872,-0.082,-0.0799,-0.0781,-0.0788,-0.0798,-0.0807,-0.0829,-0.0848,-0.0883,-0.091,-0.0929,-0.0951,-0.0962,-0.0998,-0.0985,-0.1009,-0.1014,-0.1018,-0.1025,-0.1012,-0.1017,-0.0966,-0.0966,-0.0966,0,0,-0.094,-0.0893,-0.0871,-0.081,-0.0804,-0.0808,-0.0797,-0.0808,-0.0849,-0.0849,-0.0932,-0.093,-0.0939,-0.0976,-0.0992,-0.0985,-0.1027,-0.1018,-0.1022,-0.1028,-0.1013,-0.1018,-0.1023,-0.0966,-0.0966,-0.0966,0,0,-0.0976,-0.0909,-0.0886,-0.0863,-0.0838,-0.0844,-0.0847,-0.0852,-0.0883,-0.0933,-0.0946,-0.0961,-0.1005,-0.1016,-0.1025,-0.1059,-0.1045,-0.1056,-0.1103,-0.109,-0.1095,-0.1099,-0.1102,-0.1105,-0.1067,-0.1067,-0.1067,0,-0.1016,-0.0969,-0.0893,-0.0873,-0.0886,-0.0862,-0.0883,-0.0902,-0.0941,-0.0973,-0.0965,-0.1018,-0.1023,-0.1067,-0.1077,-0.1073,-0.1067,-0.1089,-0.1098,-0.1102,-0.1104,-0.1106,-0.1109,-0.107,-0.107,-0.107,-0.1069,0,-0.1021,-0.1005,-0.0998,-0.0959,-0.0959,-0.0976,-0.0967,-0.0997,-0.1031,-0.1052,-0.1095,-0.1092,-0.1117,-0.1115,-0.1114,-0.1139,-0.113,-0.1102,-0.1091,-0.1114,-0.1114,-0.1116,-0.1075,-0.1074,-0.1073,-0.1072,0,0,-0.1055,-0.1016,-0.1014,-0.1025,-0.1011,-0.1012,-0.1068,-0.1106,-0.1144,-0.1165,-0.1214,-0.1232,-0.1209,-0.1215,-0.1202,-0.1195,-0.121,-0.1166,-0.1164,-0.1181,-0.1199,-0.1147,-0.1144,-0.1187,-0.1187,-0.1187,-0.1197,0,-0.1102,-0.1107,-0.108,-0.1131,-0.1137,-0.1132,-0.1183,-0.1209,-0.1232,-0.1264,-0.1252,-0.1273,-0.1255,-0.1249,-0.1248,-0.1204,-0.1216,-0.1211,-0.1163,-0.1162,-0.1122,-0.1144,-0.1188,-0.1198,-0.1198,-0.1199,-0.1199,0,-0.1094,-0.1118,-0.1169,-0.121,-0.121,-0.1246,-0.1302,-0.1337,-0.1356,-0.1361,-0.1368,-0.1348,-0.1349,-0.1307,-0.1284,-0.1283,-0.1258,-0.1226,-0.1225,-0.1153,-0.1113,-0.1163,-0.1202,-0.1202,-0.1201,-0.1201,-0.1201,0,-0.1127,-0.1167,-0.1233,-0.1239,-0.128,-0.1321,-0.1352,-0.1376,-0.1397,-0.1407,-0.1401,-0.1406,-0.1382,-0.1355,-0.1301,-0.1291,-0.1261,-0.1231,-0.1175,-0.1172,-0.1187,-0.1182,-0.1229,-0.1229,-0.1229,-0.1229,-0.1229,0,-0.1148,-0.1199,-0.1254,-0.1276,-0.1356,-0.1357,-0.1419,-0.1432,-0.1443,-0.1451,-0.1444,-0.1429,-0.1388,-0.1365,-0.1323,-0.1256,-0.1283,-0.1191,-0.1169,-0.1216,-0.1215,-0.1189,-0.1185,-0.1229,-0.1229,-0.1229,-0.1229,0,-0.1147,-0.1184,-0.1255,-0.1334,-0.1359,-0.14,-0.1439,-0.1456,-0.147,-0.147,-0.1468,-0.1446,-0.1403,-0.1378,-0.1319,-0.127,-0.1215,-0.1195,-0.127,-0.1251,-0.1134,-0.1133,-0.1124,-0.1122,-0.1121,-0.1119,-0.1118,0,-0.1153,-0.1189,-0.1281,-0.1305,-0.1346,-0.1404,-0.1426,-0.1459,-0.1468,-0.1467,-0.1459,-0.1434,-0.1413,-0.1293,-0.1272,-0.1213,-0.1195,-0.1174,-0.1138,-0.1143,-0.1123,-0.1124,-0.1124,-0.1116,-0.1115,-0.1115,-0.1115,0,-0.1181,-0.1211,-0.1253,-0.1293,-0.1332,-0.1367,-0.1407,-0.1405,-0.1426,-0.1475,-0.1407,-0.1353,-0.1311,-0.1245,-0.1217,-0.1171,-0.1181,-0.1158,-0.116,-0.1126,-0.1133,-0.1115,-0.1117,-0.1109,-0.111,-0.1111,-0.1111,0,-0.1186,-0.1213,-0.1236,-0.1254,-0.1301,-0.1288,-0.132,-0.1319,-0.1328,-0.1351,-0.1332,-0.1294,-0.1308,-0.1225,-0.1193,-0.1149,-0.1119,-0.1074,-0.108,-0.1086,-0.1064,-0.1067,-0.101,0,0,0,0,0,-0.1171,-0.1164,-0.1187,-0.118,-0.1214,-0.1222,-0.1282,-0.1308,-0.1362,-0.1297,-0.1307,-0.1263,-0.1179,-0.1162,-0.1101,-0.1162,-0.112,-0.1087,-0.1072,-0.108,-0.1086,-0.1061,0,0,0,0,0,0,-0.1141,-0.1169,-0.1159,-0.1103,-0.1078,-0.1093,-0.1117,-0.1148,-0.1126,-0.1188,-0.1151,-0.1205,-0.1145,-0.1195,-0.1077,-0.1076,-0.1046,-0.1093,-0.1091,-0.1077,-0.1082,-0.1087,-0.1063,0,0,0,0,0]},{"header":{"parameterUnit":"m.s-1","parameterCategory":2,"la1":30.2991,"la2":30.254,"lo1":-89.0895,"lo2":-89.0444,"dy":0.0017,"dx":0.0017,"nx":28,"ny":28,"refTime":"2024-06-11T03:00:00:Z","depth":"4","parameterNumber":3,"parameterNumberName":"V-component_of_CURRENTS"},"data":[0,0,0,0,0,0,0,0,0,0,0,0,0,0,0,0,0,0,0,0,0,0,0,0,0,0,0,0,0,0,0,0,0,0,0,0,0,0,0,0,0,0,0,0,0,0,0,0,0,0,0,0,0,0,0,0,0,0,-0.0259,-0.0259,0,-0.0222,-0.0222,-0.0221,-0.0194,-0.0193,-0.0193,-0.0193,-0.0131,-0.013,-0.0129,0,0,0,0,0,0,0,0,0,0,0,0,0,-0.0259,-0.0259,-0.0259,-0.0259,-0.0258,-0.0222,-0.0222,-0.0221,-0.0194,-0.0193,-0.0193,-0.0193,-0.0132,-0.013,-0.0129,0,0,0,0,0,0,0,0,0,0,0,0,0,-0.0244,-0.0259,-0.0259,-0.024,-0.0238,-0.0222,-0.0222,-0.0221,-0.0194,-0.0193,-0.0193,-0.0193,-0.0132,-0.013,-0.0128,-0.0122,0,0,-0.0122,-0.0121,0,0,0,0,0,0,0,0,-0.0245,-0.0244,-0.0243,-0.0242,-0.0239,-0.0212,-0.0199,-0.0187,-0.0194,-0.021,-0.0193,-0.0192,-0.0157,-0.0152,-0.0146,-0.012,-0.0117,-0.0122,-0.012,-0.0119,-0.0119,0,0,0,0,0,0,0,-0.0246,-0.0245,-0.0244,-0.0243,-0.024,-0.0217,-0.0215,-0.0197,-0.0185,-0.0209,-0.0207,-0.0203,-0.0155,-0.0149,-0.0145,-0.0116,-0.0122,-0.012,-0.0119,-0.0118,-0.0077,-0.0077,0,0,0,0,0,0,-0.0254,-0.0247,-0.0246,-0.0243,-0.0241,-0.0218,-0.0216,-0.0221,-0.0186,-0.0181,-0.0203,-0.0202,-0.0152,-0.0147,-0.0142,-0.0083,-0.0119,-0.0117,-0.0116,-0.0076,-0.0077,-0.0077,0,0,0,0,0,0,-0.0254,-0.0255,-0.0247,-0.0243,-0.0241,-0.0219,-0.0225,-0.0221,-0.0213,-0.0182,-0.0176,-0.02,-0.0152,-0.0145,-0.0111,-0.0082,-0.0117,-0.0115,-0.0076,-0.0076,-0.0077,0.0004,0,0,0,0,0,0,-0.0255,-0.0255,-0.0253,-0.0245,-0.0241,-0.0246,-0.0225,-0.022,-0.0211,-0.0209,-0.0177,-0.0171,-0.0151,-0.0114,-0.0109,-0.008,-0.0113,-0.0076,-0.0076,-0.0077,0.0001,0.0006,0.0011,0,0,0,0,0,-0.0255,-0.0254,-0.0253,-0.0252,-0.0243,-0.0246,-0.0243,-0.0225,-0.0211,-0.0215,-0.0177,-0.0172,-0.0114,-0.0112,-0.0106,-0.0075,-0.0076,-0.0076,-0.0077,-0.0001,0.0005,0.001,0,0,0,0,0,0,-0.0255,-0.0251,-0.025,-0.0249,-0.0253,-0.0242,-0.0236,-0.0227,-0.0201,-0.0191,-0.0161,-0.0152,-0.0116,-0.0119,-0.0118,-0.0072,-0.01,-0.0099,-0.0044,-0.0038,-0.0034,-0.0023,-0.0111,0,0,0,0,0,-0.0255,-0.0254,-0.0255,-0.0257,-0.0259,-0.0249,-0.0244,-0.0236,-0.0216,-0.0204,-0.0177,-0.015,-0.0116,-0.0095,-0.0079,-0.0045,-0.0032,-0.0031,-0.0026,-0.0022,-0.0013,0.003,0.0041,-0.0078,-0.0078,-0.0078,0,0,-0.0259,-0.0254,-0.0255,-0.0257,-0.0256,-0.0245,-0.0246,-0.0244,-0.0212,-0.0201,-0.0149,-0.0134,-0.0108,-0.0064,-0.0049,-0.0056,0.0019,-0.0022,-0.0018,-0.0012,0.0031,0.0043,0.0054,-0.0078,-0.0078,-0.0078,0,0,-0.0259,-0.0264,-0.0259,-0.0259,-0.0256,-0.0246,-0.0248,-0.0237,-0.021,-0.0175,-0.0145,-0.0101,-0.0078,-0.0023,0.0003,0.0037,0.0037,0.0014,0.0065,0.0107,0.0118,0.0128,0.0174,0.0188,0.0025,0.0025,0.0025,0,-0.0262,-0.0256,-0.026,-0.0251,-0.0245,-0.0246,-0.0236,-0.0205,-0.0177,-0.0148,-0.0156,-0.0081,-0.0044,0.0041,0.0063,0.0057,0.0063,0.0053,0.0118,0.0128,0.0137,0.0181,0.0195,0.0029,0.0028,0.0028,0.0027,0,-0.0259,-0.0247,-0.0249,-0.0232,-0.0225,-0.0226,-0.0193,-0.0168,-0.0145,-0.0114,-0.0052,-0.0002,0.0039,0.0062,0.0086,0.0165,0.0143,0.0118,0.0116,0.0155,0.0198,0.0211,0.0034,0.0033,0.0031,0.0031,0,0,-0.0293,-0.0253,-0.0256,-0.0245,-0.0218,-0.0223,-0.0157,-0.0114,-0.0084,-0.0035,0.0011,0.011,0.0114,0.0142,0.0172,0.0231,0.0329,0.0203,0.0204,0.0271,0.0416,0.0349,0.0357,0.0303,0.0306,0.0307,0.0427,0,-0.0295,-0.0276,-0.0246,-0.0227,-0.022,-0.0186,-0.0137,-0.009,-0.0053,-0.001,0.0074,0.0112,0.0151,0.0161,0.0237,0.028,0.0362,0.0299,0.0348,0.035,0.0305,0.037,0.0315,0.0437,0.044,0.0442,0.0443,0,-0.0303,-0.0291,-0.027,-0.023,-0.0227,-0.0212,-0.0165,-0.0119,-0.0035,-0.0004,0.0065,0.0097,0.0213,0.0213,0.0365,0.0309,0.0381,0.0428,0.0432,0.0351,0.0308,0.0382,0.0467,0.0465,0.0464,0.0462,0.0461,0,-0.0343,-0.0308,-0.0295,-0.0286,-0.0238,-0.0221,-0.02,-0.013,-0.0095,-0.0015,-0.0001,0.0119,0.0166,0.0268,0.0387,0.0364,0.0532,0.0507,0.0536,0.0532,0.0521,0.0509,0.0639,0.0639,0.0639,0.0638,0.0638,0,-0.0352,-0.0349,-0.0324,-0.0323,-0.0329,-0.0275,-0.0269,-0.0219,-0.0152,-0.0115,-0.0019,0.0035,0.0177,0.0285,0.0388,0.0501,0.0542,0.0565,0.0563,0.0551,0.054,0.0532,0.0518,0.0643,0.0642,0.0641,0.064,0,-0.0389,-0.0361,-0.0365,-0.0343,-0.0346,-0.036,-0.0339,-0.0329,-0.025,-0.0201,-0.0178,-0.002,0.0113,0.0259,0.0434,0.0492,0.0607,0.065,0.0644,0.0635,0.0581,0.057,0.0677,0.0676,0.0675,0.0674,0.0674,0,-0.0403,-0.0404,-0.0418,-0.0445,-0.0444,-0.0459,-0.0468,-0.0395,-0.037,-0.0229,-0.0203,-0.0055,0.0052,0.0272,0.0411,0.0595,0.062,0.0678,0.0631,0.0601,0.0589,0.0579,0.0569,0.0672,0.0672,0.0671,0.0671,0,-0.045,-0.0459,-0.047,-0.0528,-0.0559,-0.0574,-0.0571,-0.0554,-0.0444,-0.038,-0.0212,-0.0075,0.0082,0.0257,0.0404,0.0537,0.0623,0.0667,0.067,0.0626,0.0596,0.0582,0.0573,0.0667,0.0668,0.0668,0.0669,0,-0.0504,-0.0542,-0.0568,-0.0616,-0.0654,-0.0664,-0.0652,-0.0586,-0.053,-0.035,-0.0295,-0.009,0.005,0.023,0.0366,0.0477,0.0491,0.0511,0.0522,0.0527,0.043,0.0365,0.0385,0,0,0,0,0,-0.0557,-0.0606,-0.066,-0.0699,-0.0728,-0.0743,-0.0705,-0.0665,-0.0562,-0.0455,-0.0361,-0.0203,0.0027,0.0149,0.0246,0.0301,0.0473,0.0412,0.0492,0.0648,0.0652,0.0554,0,0,0,0,0,0,-0.0595,-0.0655,-0.0679,-0.075,-0.0788,-0.0809,-0.0783,-0.0707,-0.0619,-0.0492,-0.0356,-0.0231,-0.0004,-0.0044,0.0228,0.0267,0.032,0.0542,0.0542,0.0645,0.0649,0.0652,0.0553,0,0,0,0,0]}]]